Weather in Marfino

Russia / Moscow Oblast     56°04′26″N   37°33′24″E
temp.,
°C
wind,
m/s
gust,
m/s
humid.,
%
clouds,
%
prec.,
mm/h
press.,
hPa
HPBL,
m
19 september, sun
sun1900:00+5e41171100 0.0 1024468
03:00+4e51274100 0.0 1024512
06:00+4e51276100 0.0 1024481
09:00+5e61370100 0.0 1023638
12:00+8e71154100 0.0 10221041
15:00+9e71053100 0.0 10221041
18:00+8e71254100 0.0 1021949
21:00+7e71356100 0.2 10201029
20 september, mon
mon2000:00+6e71567100 1.0 1019899
03:00+5e81782100 4.2 1018755
06:00+4ene91886100 1.7 1017819
09:00+4e81790100 4.4 1017908
12:00+4e81694100 3.0 1018924
15:00+4e81696100 4.8 1018906
18:00+4e81595100 1.6 1017948
21:00+5e71493100 2.4 1017957
21 september, tue
tue2100:00+5e71493100 1.6 1016923
03:00+5e61494100 3.1 1015823
06:00+5e61394100 2.4 1014786
09:00+6e61295100 3.3 1014649
12:00+6e61294100 0.8 1014612
15:00+7e61194100 1.1 1014621
18:00+7e61297100 0.1 1013641
21:00+7e61296100 0.9 1014582
22 september, wed
wed2200:00+7e51197100 1.1 1014520
03:00+6e5996100 2.8 1014448
06:00+6e4896100 3.6 1014416
09:00+6e3796100 4.9 1015462
12:00+7ese3593100 0.1 1016519
15:00+8e348295 0.1 1016584
18:00+8e3790100 0.0 1017319
21:00+6e379493 0.0 1018261
23 september, thu
thu2300:00+6e269299 0.0 1018235
03:00+6ene239492 0.0 101875
06:00+6e2596100 0.0 1017189
09:00+8e3687100 0.1 1017328
12:00+10ese4684100 0.1 1016541
15:00+11se4580100 0.6 1015702
18:00+10ese2590100 0.5 1014193
21:00+9ssw1295100 0.8 101496